Hourly Data Report for September 21, 2017

All times are specified in Local Standard Time (LST). Add 1 hour to adjust for Daylight Saving Time where and when it is observed.

BAKER LAKE A
NUNAVUT

64°17'56.000" N
96°04'40.000" W
18.60 m
2300503
71926
YBK

Download Data

Hourly Data (September 2017)
Hourly Data Report for September 21, 2017
Temp Definition
°C
Dew Point Temp Definition
°C
Rel Hum Definition
%
Wind Dir Definition
10's deg

Wind Spd Definition
km/h
Visibility Definition
km
Stn Press Definition
kPa
Hmdx Definition


Wind Chill Definition


Weather Definition


TIME
00:00 Legend Double Dagger 4.3 1.5 82 6 24 24.1 101.98     Mostly Cloudy
01:00 Legend Double Dagger 3.2 0.4 82 7 25 24.1 101.96     LegendNANA
02:00 Legend Double Dagger 2.2 -0.3 83 6 22 24.1 101.93     LegendNANA
03:00 Legend Double Dagger 1.7 -0.5 85 5 20 24.1 101.91     Mainly Clear
04:00 Legend Double Dagger 1.2 -0.6 87 5 20 24.1 101.88     LegendNANA
05:00 Legend Double Dagger -0.4 -1.5 92 2 17 32.2 101.83   -5 LegendNANA
06:00 Legend Double Dagger 0.8 -0.7 90 8 23 32.2 101.84     Cloudy
07:00 Legend Double Dagger 1.2 -0.8 87 6 28 32.2 101.85     LegendNANA
08:00 Legend Double Dagger 1.6 -0.9 83 7 29 32.2 101.84     LegendNANA
09:00 Legend Double Dagger 2.5 -0.6 80 6 23 32.2 101.86     Mostly Cloudy
10:00 Legend Double Dagger 2.8 -1.3 74 6 25 32.2 101.83     LegendNANA
11:00 Legend Double Dagger 3.0 -0.4 78 6 21 32.2 101.81     LegendNANA
12:00 Legend Double Dagger 4.9 -0.4 69 8 20 32.2 101.78     Mostly Cloudy
13:00 Legend Double Dagger 5.1 -0.8 65 7 20 32.2 101.79     LegendNANA
14:00 Legend Double Dagger 5.7 -0.7 63 7 18 32.2 101.75     LegendNANA
15:00 Legend Double Dagger 6.7 -1.0 58 4 18 32.2 101.74     Mainly Clear
16:00 Legend Double Dagger 6.6 -0.3 61 5 16 32.2 101.76     LegendNANA
17:00 Legend Double Dagger 6.4 -0.8 60 3 12 32.2 101.76     LegendNANA
18:00 Legend Double Dagger 2.9 -1.9 70 1 8 32.2 101.79     Mostly Cloudy
19:00 Legend Double Dagger 3.4 -0.7 75 35 12 32.2 101.80     LegendNANA
20:00 Legend Double Dagger 3.2 -0.3 78 35 13 24.1 101.83     LegendNANA
21:00 Legend Double Dagger 2.6 -0.7 79 36 10 24.1 101.86     Mostly Cloudy
22:00 Legend Double Dagger 2.9 -0.6 78 36 10 24.1 101.88     LegendNANA
23:00 Legend Double Dagger 2.5 -0.7 79 34 11 24.1 101.88     LegendNANA

Notes on Data Quality.

Legend

  • E = Estimated
  • M = Missing
  • NA = Not Available
  • ‡ = Partner data that is not subject to review by the National Climate Archives
Date modified: